owner,sensor,date,latitude,longitude,air_pressure(mBar),qcFlag 
NDBC,ioos:station:wmo:42056:1,2012-03-01T00:00:00Z,19.8020,-84.8570,1013.5,1111122 
NDBC,ioos:station:wmo:42056:1,2012-03-01T01:00:00Z,19.8020,-84.8570,1013.4,1111122 
NDBC,ioos:station:wmo:42056:1,2012-03-01T02:00:00Z,19.8020,-84.8570,1014.1,1111122 
NDBC,ioos:station:wmo:42056:1,2012-03-01T03:00:00Z,19.8020,-84.8570,1014.1,1111122 
NDBC,ioos:station:wmo:42056:1,2012-03-01T04:00:00Z,19.8020,-84.8570,1014.1,1111122 
NDBC,ioos:station:wmo:42056:1,2012-03-01T05:00:00Z,19.8020,-84.8570,1014.1,1111122 
NDBC,ioos:station:wmo:42056:1,2012-03-01T06:00:00Z,19.8020,-84.8570,1014.1,1111122 
NDBC,ioos:station:wmo:42056:1,2012-03-01T07:00:00Z,19.8020,-84.8570,1013.6,1111122 
NDBC,ioos:station:wmo:42056:1,2012-03-01T08:00:00Z,19.8020,-84.8570,1013.5,1111122 
NDBC,ioos:station:wmo:42056:1,2012-03-01T09:00:00Z,19.8020,-84.8570,1013.2,1111122 
NDBC,ioos:station:wmo:42056:1,2012-03-01T10:00:00Z,19.8020,-84.8570,1012.6,1111122 
NDBC,ioos:station:wmo:42056:1,2012-03-01T11:00:00Z,19.8020,-84.8570,1013.2,1111122 
NDBC,ioos:station:wmo:42056:1,2012-03-01T12:00:00Z,19.8020,-84.8570,1013.0,1111122 
NDBC,ioos:station:wmo:42056:1,2012-03-01T13:00:00Z,19.8020,-84.8570,1013.2,1111122 
NDBC,ioos:station:wmo:42056:1,2012-03-01T14:00:00Z,19.8020,-84.8570,1013.4,1111122 
NDBC,ioos:station:wmo:42056:1,2012-03-01T15:00:00Z,19.8020,-84.8570,1013.8,1111122 
NDBC,ioos:station:wmo:42056:1,2012-03-01T16:00:00Z,19.8020,-84.8570,1013.9,1111122 
NDBC,ioos:station:wmo:42056:1,2012-03-01T17:00:00Z,19.8020,-84.8570,1013.8,1111122 
NDBC,ioos:station:wmo:42056:1,2012-03-01T18:00:00Z,19.8020,-84.8570,1013.3,1111122 
NDBC,ioos:station:wmo:42056:1,2012-03-01T19:00:00Z,19.8020,-84.8570,1011.8,1111122 
NDBC,ioos:station:wmo:42056:1,2012-03-01T20:00:00Z,19.8020,-84.8570,1010.3,1111122 
NDBC,ioos:station:wmo:42056:1,2012-03-01T21:00:00Z,19.8020,-84.8570,1009.6,1111122 
NDBC,ioos:station:wmo:42056:1,2012-03-01T22:00:00Z,19.8020,-84.8570,1009.1,1111122 
NDBC,ioos:station:wmo:42056:1,2012-03-01T23:00:00Z,19.8020,-84.8570,1008.8,1111122 
NDBC,ioos:station:wmo:42056:1,2012-03-02T00:00:00Z,19.8020,-84.8570,1008.3,1111122 
NDBC,ioos:station:wmo:42056:1,2012-03-02T01:00:00Z,19.8020,-84.8570,1007.9,1111122 
NDBC,ioos:station:wmo:42056:1,2012-03-02T02:00:00Z,19.8020,-84.8570,1008.3,1111122 
NDBC,ioos:station:wmo:42056:1,2012-03-02T03:00:00Z,19.8020,-84.8570,1007.8,1111122 
NDBC,ioos:station:wmo:42056:1,2012-03-02T04:00:00Z,19.8020,-84.8570,1007.9,1111122 
NDBC,ioos:station:wmo:42056:1,2012-03-02T05:00:00Z,19.8020,-84.8570,1008.2,1111122 
NDBC,ioos:station:wmo:42056:1,2012-03-02T06:00:00Z,19.8020,-84.8570,1007.2,1111122 
NDBC,ioos:station:wmo:42056:1,2012-03-02T07:00:00Z,19.8020,-84.8570,1007.0,1111122 
NDBC,ioos:station:wmo:42056:1,2012-03-02T08:00:00Z,19.8020,-84.8570,1006.5,1111122 
NDBC,ioos:station:wmo:42056:1,2012-03-02T09:00:00Z,19.8020,-84.8570,1006.1,1111122 
NDBC,ioos:station:wmo:42056:1,2012-03-02T10:00:00Z,19.8020,-84.8570,1005.8,1111122 
NDBC,ioos:station:wmo:42056:1,2012-03-02T11:00:00Z,19.8020,-84.8570,1005.7,1111122 
NDBC,ioos:station:wmo:42056:1,2012-03-02T12:00:00Z,19.8020,-84.8570,1005.4,1111122 
NDBC,ioos:station:wmo:42056:1,2012-03-02T13:00:00Z,19.8020,-84.8570,1006.0,1111122 
NDBC,ioos:station:wmo:42056:1,2012-03-02T14:00:00Z,19.8020,-84.8570,1006.2,1111122 
NDBC,ioos:station:wmo:42056:1,2012-03-02T15:00:00Z,19.8020,-84.8570,1006.7,1111122 
NDBC,ioos:station:wmo:42056:1,2012-03-02T16:00:00Z,19.8020,-84.8570,1007.1,1111122 
NDBC,ioos:station:wmo:42056:1,2012-03-02T17:00:00Z,19.8020,-84.8570,1007.1,1111122 
NDBC,ioos:station:wmo:42056:1,2012-03-02T18:00:00Z,19.8020,-84.8570,1006.9,1111122 
NDBC,ioos:station:wmo:42056:1,2012-03-02T19:00:00Z,19.8020,-84.8570,1006.4,1111122 
NDBC,ioos:station:wmo:42056:1,2012-03-02T20:00:00Z,19.8020,-84.8570,1005.3,1111122 
NDBC,ioos:station:wmo:42056:1,2012-03-02T21:00:00Z,19.8020,-84.8570,1004.7,1111122 
NDBC,ioos:station:wmo:42056:1,2012-03-02T22:00:00Z,19.8020,-84.8570,1004.4,1111122 
NDBC,ioos:station:wmo:42056:1,2012-03-02T23:00:00Z,19.8020,-84.8570,1004.1,1111122 
NDBC,ioos:station:wmo:42056:1,2012-03-03T00:00:00Z,19.8020,-84.8570,1004.4,1111122 
NDBC,ioos:station:wmo:42056:1,2012-03-03T01:00:00Z,19.8020,-84.8570,1005.4,1111122 
NDBC,ioos:station:wmo:42056:1,2012-03-03T02:00:00Z,19.8020,-84.8570,1005.7,1111122 
NDBC,ioos:station:wmo:42056:1,2012-03-03T03:00:00Z,19.8020,-84.8570,1005.8,1111122 
NDBC,ioos:station:wmo:42056:1,2012-03-03T04:00:00Z,19.8020,-84.8570,1006.0,1111122 
NDBC,ioos:station:wmo:42056:1,2012-03-03T05:00:00Z,19.8020,-84.8570,1006.0,1111122 
NDBC,ioos:station:wmo:42056:1,2012-03-03T06:00:00Z,19.8020,-84.8570,1005.9,1111122 
NDBC,ioos:station:wmo:42056:1,2012-03-03T07:00:00Z,19.8020,-84.8570,1006.0,1111122 
NDBC,ioos:station:wmo:42056:1,2012-03-04T23:00:00Z,19.8020,-84.8570,1023.0,1111122 
NDBC,ioos:station:wmo:42056:1,2012-03-05T00:00:00Z,19.8020,-84.8570,1022.8,1111122 
NDBC,ioos:station:wmo:42056:1,2012-03-05T01:00:00Z,19.8020,-84.8570,1022.7,1111122 
NDBC,ioos:station:wmo:42056:1,2012-03-05T02:00:00Z,19.8020,-84.8570,1023.5,1111122 
NDBC,ioos:station:wmo:42056:1,2012-03-05T03:00:00Z,19.8020,-84.8570,1024.1,1111122 
NDBC,ioos:station:wmo:42056:1,2012-03-05T04:00:00Z,19.8020,-84.8570,1024.4,1111122 
NDBC,ioos:station:wmo:42056:1,2012-03-05T05:00:00Z,19.8020,-84.8570,1024.8,1111122 
NDBC,ioos:station:wmo:42056:1,2012-03-05T06:00:00Z,19.8020,-84.8570,1025.0,1111122 
NDBC,ioos:station:wmo:42056:1,2012-03-05T07:00:00Z,19.8020,-84.8570,1025.1,1111122 
NDBC,ioos:station:wmo:42056:1,2012-03-05T08:00:00Z,19.8020,-84.8570,1025.0,1111122 
NDBC,ioos:station:wmo:42056:1,2012-03-05T09:00:00Z,19.8020,-84.8570,1024.8,1111122 
NDBC,ioos:station:wmo:42056:1,2012-03-05T10:00:00Z,19.8020,-84.8570,1024.6,1111122 
NDBC,ioos:station:wmo:42056:1,2012-03-05T11:00:00Z,19.8020,-84.8570,1024.9,1111122 
NDBC,ioos:station:wmo:42056:1,2012-03-05T12:00:00Z,19.8020,-84.8570,1025.5,1111122 
NDBC,ioos:station:wmo:42056:1,2012-03-05T13:00:00Z,19.8020,-84.8570,1026.0,1111122 
NDBC,ioos:station:wmo:42056:1,2012-03-05T14:00:00Z,19.8020,-84.8570,1026.9,1111122 
NDBC,ioos:station:wmo:42056:1,2012-03-05T15:00:00Z,19.8020,-84.8570,1027.9,1111122 
NDBC,ioos:station:wmo:42056:1,2012-03-05T16:00:00Z,19.8020,-84.8570,1028.6,1111122 
NDBC,ioos:station:wmo:42056:1,2012-03-05T17:00:00Z,19.8020,-84.8570,1028.5,1111122 
NDBC,ioos:station:wmo:42056:1,2012-03-05T18:00:00Z,19.8020,-84.8570,1028.6,1111122 
NDBC,ioos:station:wmo:42056:1,2012-03-05T19:00:00Z,19.8020,-84.8570,1027.8,1111122 
NDBC,ioos:station:wmo:42056:1,2012-03-05T20:00:00Z,19.8020,-84.8570,1026.9,1111122 
NDBC,ioos:station:wmo:42056:1,2012-03-05T21:00:00Z,19.8020,-84.8570,1026.2,1111122 
NDBC,ioos:station:wmo:42056:1,2012-03-05T22:00:00Z,19.8020,-84.8570,1025.9,1111122 
NDBC,ioos:station:wmo:42056:1,2012-03-05T23:00:00Z,19.8020,-84.8570,1025.7,1111122 
NDBC,ioos:station:wmo:42056:1,2012-03-06T00:00:00Z,19.8020,-84.8570,1025.5,1111122 
NDBC,ioos:station:wmo:42056:1,2012-03-06T01:00:00Z,19.8020,-84.8570,1025.4,1111122 
NDBC,ioos:station:wmo:42056:1,2012-03-06T02:00:00Z,19.8020,-84.8570,1025.7,1111122 
NDBC,ioos:station:wmo:42056:1,2012-03-06T03:00:00Z,19.8020,-84.8570,1026.1,1111122 
NDBC,ioos:station:wmo:42056:1,2012-03-06T04:00:00Z,19.8020,-84.8570,1026.3,1111122 
NDBC,ioos:station:wmo:42056:1,2012-03-06T05:00:00Z,19.8020,-84.8570,1026.0,1111122 
NDBC,ioos:station:wmo:42056:1,2012-03-06T06:00:00Z,19.8020,-84.8570,1025.4,1111122 
NDBC,ioos:station:wmo:42056:1,2012-03-06T07:00:00Z,19.8020,-84.8570,1024.9,1111122 
NDBC,ioos:station:wmo:42056:1,2012-03-06T08:00:00Z,19.8020,-84.8570,1023.8,1111122 
NDBC,ioos:station:wmo:42056:1,2012-03-06T09:00:00Z,19.8020,-84.8570,1022.9,1111122 
NDBC,ioos:station:wmo:42056:1,2012-03-06T10:00:00Z,19.8020,-84.8570,1022.0,1111122 
NDBC,ioos:station:wmo:42056:1,2012-03-06T11:00:00Z,19.8020,-84.8570,1021.9,1111122 
NDBC,ioos:station:wmo:42056:1,2012-03-06T12:00:00Z,19.8020,-84.8570,1022.0,1111122 
NDBC,ioos:station:wmo:42056:1,2012-03-06T13:00:00Z,19.8020,-84.8570,1021.9,1111122 
NDBC,ioos:station:wmo:42056:1,2012-03-06T14:00:00Z,19.8020,-84.8570,1022.3,1111122 
NDBC,ioos:station:wmo:42056:1,2012-03-06T15:00:00Z,19.8020,-84.8570,1023.1,1111122 
NDBC,ioos:station:wmo:42056:1,2012-03-06T16:00:00Z,19.8020,-84.8570,1023.4,1111122 
NDBC,ioos:station:wmo:42056:1,2012-03-06T17:00:00Z,19.8020,-84.8570,1023.4,1111122 
NDBC,ioos:station:wmo:42056:1,2012-03-06T18:00:00Z,19.8020,-84.8570,1022.7,1111122 
NDBC,ioos:station:wmo:42056:1,2012-03-06T19:00:00Z,19.8020,-84.8570,1021.6,1111122 
NDBC,ioos:station:wmo:42056:1,2012-03-06T20:00:00Z,19.8020,-84.8570,1019.9,1111122 
NDBC,ioos:station:wmo:42056:1,2012-03-06T21:00:00Z,19.8020,-84.8570,1019.3,1111122 
NDBC,ioos:station:wmo:42056:1,2012-03-06T22:00:00Z,19.8020,-84.8570,1018.7,1111122 
NDBC,ioos:station:wmo:42056:1,2012-03-06T23:00:00Z,19.8020,-84.8570,1018.6,1111122 
NDBC,ioos:station:wmo:42056:1,2012-03-07T00:00:00Z,19.8020,-84.8570,1018.3,1111122 
NDBC,ioos:station:wmo:42056:1,2012-03-07T01:00:00Z,19.8020,-84.8570,1017.9,1111122 
NDBC,ioos:station:wmo:42056:1,2012-03-07T02:00:00Z,19.8020,-84.8570,1018.4,1111122 
NDBC,ioos:station:wmo:42056:1,2012-03-07T03:00:00Z,19.8020,-84.8570,1018.9,1111122 
NDBC,ioos:station:wmo:42056:1,2012-03-07T04:00:00Z,19.8020,-84.8570,1019.2,1111122 
NDBC,ioos:station:wmo:42056:1,2012-03-07T05:00:00Z,19.8020,-84.8570,1018.6,1111122 
NDBC,ioos:station:wmo:42056:1,2012-03-07T06:00:00Z,19.8020,-84.8570,1018.0,1111122 
NDBC,ioos:station:wmo:42056:1,2012-03-07T07:00:00Z,19.8020,-84.8570,1017.4,1111122 
NDBC,ioos:station:wmo:42056:1,2012-03-07T08:00:00Z,19.8020,-84.8570,1017.0,1111122 
NDBC,ioos:station:wmo:42056:1,2012-03-07T09:00:00Z,19.8020,-84.8570,1016.5,1111122 
NDBC,ioos:station:wmo:42056:1,2012-03-07T10:00:00Z,19.8020,-84.8570,1015.9,1111122 
NDBC,ioos:station:wmo:42056:1,2012-03-07T11:00:00Z,19.8020,-84.8570,1016.0,1111122 
NDBC,ioos:station:wmo:42056:1,2012-03-07T12:00:00Z,19.8020,-84.8570,1016.3,1111122 
NDBC,ioos:station:wmo:42056:1,2012-03-07T13:00:00Z,19.8020,-84.8570,1016.3,1111122 
NDBC,ioos:station:wmo:42056:1,2012-03-07T14:00:00Z,19.8020,-84.8570,1016.6,1111122 
NDBC,ioos:station:wmo:42056:1,2012-03-07T15:00:00Z,19.8020,-84.8570,1016.8,1111122 
NDBC,ioos:station:wmo:42056:1,2012-03-07T16:00:00Z,19.8020,-84.8570,1017.3,1111122 
NDBC,ioos:station:wmo:42056:1,2012-03-07T17:00:00Z,19.8020,-84.8570,1017.2,1111122 
NDBC,ioos:station:wmo:42056:1,2012-03-07T18:00:00Z,19.8020,-84.8570,1016.8,1111122 
NDBC,ioos:station:wmo:42056:1,2012-03-07T19:00:00Z,19.8020,-84.8570,1016.2,1111122 
NDBC,ioos:station:wmo:42056:1,2012-03-07T20:00:00Z,19.8020,-84.8570,1015.0,1111122 
NDBC,ioos:station:wmo:42056:1,2012-03-07T21:00:00Z,19.8020,-84.8570,1014.3,1111122 
NDBC,ioos:station:wmo:42056:1,2012-03-07T22:00:00Z,19.8020,-84.8570,1013.7,1111122 
NDBC,ioos:station:wmo:42056:1,2012-03-07T23:00:00Z,19.8020,-84.8570,1013.4,1111122 
NDBC,ioos:station:wmo:42056:1,2012-03-08T00:00:00Z,19.8020,-84.8570,1012.9,1111122 
NDBC,ioos:station:wmo:42056:1,2012-03-08T02:00:00Z,19.8020,-84.8570,1013.7,1111122 
NDBC,ioos:station:wmo:42056:1,2012-03-08T03:00:00Z,19.8020,-84.8570,1014.1,1111122 
NDBC,ioos:station:wmo:42056:1,2012-03-08T04:00:00Z,19.8020,-84.8570,1014.1,1111122 
NDBC,ioos:station:wmo:42056:1,2012-03-08T05:00:00Z,19.8020,-84.8570,1014.1,1111122 
NDBC,ioos:station:wmo:42056:1,2012-03-08T06:00:00Z,19.8020,-84.8570,1014.3,1111122 
NDBC,ioos:station:wmo:42056:1,2012-03-08T07:00:00Z,19.8020,-84.8570,1014.4,1111122 
NDBC,ioos:station:wmo:42056:1,2012-03-08T08:00:00Z,19.8020,-84.8570,1014.4,1111122 
NDBC,ioos:station:wmo:42056:1,2012-03-08T09:00:00Z,19.8020,-84.8570,1013.4,1111122 
NDBC,ioos:station:wmo:42056:1,2012-03-08T10:00:00Z,19.8020,-84.8570,1012.6,1111122 
NDBC,ioos:station:wmo:42056:1,2012-03-08T11:00:00Z,19.8020,-84.8570,1012.6,1111122 
NDBC,ioos:station:wmo:42056:1,2012-03-08T12:00:00Z,19.8020,-84.8570,1012.1,1111122 
NDBC,ioos:station:wmo:42056:1,2012-03-08T13:00:00Z,19.8020,-84.8570,1013.8,1111122 
NDBC,ioos:station:wmo:42056:1,2012-03-08T14:00:00Z,19.8020,-84.8570,1014.8,1111122 
NDBC,ioos:station:wmo:42056:1,2012-03-08T15:00:00Z,19.8020,-84.8570,1015.3,1111122 
NDBC,ioos:station:wmo:42056:1,2012-03-08T16:00:00Z,19.8020,-84.8570,1015.6,1111122 
NDBC,ioos:station:wmo:42056:1,2012-03-08T17:00:00Z,19.8020,-84.8570,1015.5,1111122 
NDBC,ioos:station:wmo:42056:1,2012-03-08T18:00:00Z,19.8020,-84.8570,1014.6,1111122 
NDBC,ioos:station:wmo:42056:1,2012-03-08T19:00:00Z,19.8020,-84.8570,1014.1,1111122 
NDBC,ioos:station:wmo:42056:1,2012-03-08T20:00:00Z,19.8020,-84.8570,1013.2,1111122 
NDBC,ioos:station:wmo:42056:1,2012-03-08T21:00:00Z,19.8020,-84.8570,1012.6,1111122 
NDBC,ioos:station:wmo:42056:1,2012-03-08T22:00:00Z,19.8020,-84.8570,1012.9,1111122 
NDBC,ioos:station:wmo:42056:1,2012-03-08T23:00:00Z,19.8020,-84.8570,1013.5,1111122 
NDBC,ioos:station:wmo:42056:1,2012-03-09T00:00:00Z,19.8020,-84.8570,1014.4,1111122 
NDBC,ioos:station:wmo:42056:1,2012-03-09T01:00:00Z,19.8020,-84.8570,1014.6,1111122 
NDBC,ioos:station:wmo:42056:1,2012-03-09T02:00:00Z,19.8020,-84.8570,1015.7,1111122 
NDBC,ioos:station:wmo:42056:1,2012-03-09T03:00:00Z,19.8020,-84.8570,1016.5,1111122 
NDBC,ioos:station:wmo:42056:1,2012-03-09T04:00:00Z,19.8020,-84.8570,1017.1,1111122 
NDBC,ioos:station:wmo:42056:1,2012-03-09T05:00:00Z,19.8020,-84.8570,1018.9,1111122 
NDBC,ioos:station:wmo:42056:1,2012-03-09T06:00:00Z,19.8020,-84.8570,1018.8,1111122 
NDBC,ioos:station:wmo:42056:1,2012-03-09T07:00:00Z,19.8020,-84.8570,1019.3,1111122 
NDBC,ioos:station:wmo:42056:1,2012-03-09T08:00:00Z,19.8020,-84.8570,1019.0,1111122 
NDBC,ioos:station:wmo:42056:1,2012-03-09T09:00:00Z,19.8020,-84.8570,1018.6,1111122 
NDBC,ioos:station:wmo:42056:1,2012-03-09T10:00:00Z,19.8020,-84.8570,1018.6,1111122 
NDBC,ioos:station:wmo:42056:1,2012-03-09T11:00:00Z,19.8020,-84.8570,1019.7,1111122 
NDBC,ioos:station:wmo:42056:1,2012-03-09T12:00:00Z,19.8020,-84.8570,1020.8,1111122 
NDBC,ioos:station:wmo:42056:1,2012-03-09T13:00:00Z,19.8020,-84.8570,1021.5,1111122 
NDBC,ioos:station:wmo:42056:1,2012-03-09T14:00:00Z,19.8020,-84.8570,1022.1,1111122 
NDBC,ioos:station:wmo:42056:1,2012-03-09T15:00:00Z,19.8020,-84.8570,1023.2,1111122 
NDBC,ioos:station:wmo:42056:1,2012-03-09T16:00:00Z,19.8020,-84.8570,1024.5,1111122 
NDBC,ioos:station:wmo:42056:1,2012-03-09T17:00:00Z,19.8020,-84.8570,1024.8,1111122 
NDBC,ioos:station:wmo:42056:1,2012-03-09T18:00:00Z,19.8020,-84.8570,1024.3,1111122 
NDBC,ioos:station:wmo:42056:1,2012-03-09T19:00:00Z,19.8020,-84.8570,1023.9,1111122 
NDBC,ioos:station:wmo:42056:1,2012-03-09T20:00:00Z,19.8020,-84.8570,1023.9,1111122 
NDBC,ioos:station:wmo:42056:1,2012-03-09T21:00:00Z,19.8020,-84.8570,1023.5,1111122 
NDBC,ioos:station:wmo:42056:1,2012-03-10T01:00:00Z,19.8020,-84.8570,1024.1,1111122 
NDBC,ioos:station:wmo:42056:1,2012-03-10T02:00:00Z,19.8020,-84.8570,1024.8,1111122 
NDBC,ioos:station:wmo:42056:1,2012-03-10T03:00:00Z,19.8020,-84.8570,1024.8,1111122 
NDBC,ioos:station:wmo:42056:1,2012-03-10T04:00:00Z,19.8020,-84.8570,1024.8,1111122 
NDBC,ioos:station:wmo:42056:1,2012-03-11T06:00:00Z,19.8020,-84.8570,1017.9,1111122 
NDBC,ioos:station:wmo:42056:1,2012-03-11T07:00:00Z,19.8020,-84.8570,1018.3,1111122 
NDBC,ioos:station:wmo:42056:1,2012-03-11T08:00:00Z,19.8020,-84.8570,1016.6,1111122 
NDBC,ioos:station:wmo:42056:1,2012-03-11T09:00:00Z,19.8020,-84.8570,1015.4,1111122 
NDBC,ioos:station:wmo:42056:1,2012-03-11T10:00:00Z,19.8020,-84.8570,1016.1,1111122 
NDBC,ioos:station:wmo:42056:1,2012-03-11T11:00:00Z,19.8020,-84.8570,1016.8,1111122 
NDBC,ioos:station:wmo:42056:1,2012-03-11T12:00:00Z,19.8020,-84.8570,1017.2,1111122 
NDBC,ioos:station:wmo:42056:1,2012-03-11T13:00:00Z,19.8020,-84.8570,1017.8,1111122 
NDBC,ioos:station:wmo:42056:1,2012-03-11T14:00:00Z,19.8020,-84.8570,1018.9,1111122 
NDBC,ioos:station:wmo:42056:1,2012-03-11T15:00:00Z,19.8020,-84.8570,1019.5,1111122 
NDBC,ioos:station:wmo:42056:1,2012-03-11T16:00:00Z,19.8020,-84.8570,1019.5,1111122 
NDBC,ioos:station:wmo:42056:1,2012-03-11T17:00:00Z,19.8020,-84.8570,1019.2,1111122 
NDBC,ioos:station:wmo:42056:1,2012-03-11T18:00:00Z,19.8020,-84.8570,1018.7,1111122 
NDBC,ioos:station:wmo:42056:1,2012-03-11T19:00:00Z,19.8020,-84.8570,1018.0,1111122 
NDBC,ioos:station:wmo:42056:1,2012-03-12T04:00:00Z,19.8020,-84.8570,1017.2,1111122 
NDBC,ioos:station:wmo:42056:1,2012-03-12T05:00:00Z,19.8020,-84.8570,1017.0,1111122 
NDBC,ioos:station:wmo:42056:1,2012-03-12T06:00:00Z,19.8020,-84.8570,1016.7,1111122 
NDBC,ioos:station:wmo:42056:1,2012-03-12T07:00:00Z,19.8020,-84.8570,1016.8,1111122 
NDBC,ioos:station:wmo:42056:1,2012-03-12T08:00:00Z,19.8020,-84.8570,1016.5,1111122 
NDBC,ioos:station:wmo:42056:1,2012-03-12T09:00:00Z,19.8020,-84.8570,1016.5,1111122 
NDBC,ioos:station:wmo:42056:1,2012-03-12T10:00:00Z,19.8020,-84.8570,1016.5,1111122 
NDBC,ioos:station:wmo:42056:1,2012-03-12T11:00:00Z,19.8020,-84.8570,1016.5,1111122 
NDBC,ioos:station:wmo:42056:1,2012-03-12T12:00:00Z,19.8020,-84.8570,1016.8,1111122 
NDBC,ioos:station:wmo:42056:1,2012-03-12T13:00:00Z,19.8020,-84.8570,1017.6,1111122 
NDBC,ioos:station:wmo:42056:1,2012-03-12T14:00:00Z,19.8020,-84.8570,1018.4,1111122 
NDBC,ioos:station:wmo:42056:1,2012-03-12T17:00:00Z,19.8020,-84.8570,1020.2,1111122 
NDBC,ioos:station:wmo:42056:1,2012-03-12T18:00:00Z,19.8020,-84.8570,1019.8,1111122 
NDBC,ioos:station:wmo:42056:1,2012-03-12T19:00:00Z,19.8020,-84.8570,1019.0,1111122 
NDBC,ioos:station:wmo:42056:1,2012-03-12T20:00:00Z,19.8020,-84.8570,1018.3,1111122 
NDBC,ioos:station:wmo:42056:1,2012-03-12T21:00:00Z,19.8020,-84.8570,1017.6,1111122 
NDBC,ioos:station:wmo:42056:1,2012-03-12T22:00:00Z,19.8020,-84.8570,1017.4,1111122 
NDBC,ioos:station:wmo:42056:1,2012-03-12T23:00:00Z,19.8020,-84.8570,1017.3,1111122 
NDBC,ioos:station:wmo:42056:1,2012-03-13T00:00:00Z,19.8020,-84.8570,1017.5,1111122 
NDBC,ioos:station:wmo:42056:1,2012-03-13T01:00:00Z,19.8020,-84.8570,1017.9,1111122 
NDBC,ioos:station:wmo:42056:1,2012-03-13T02:00:00Z,19.8020,-84.8570,1018.3,1111122 
NDBC,ioos:station:wmo:42056:1,2012-03-13T03:00:00Z,19.8020,-84.8570,1018.8,1111122 
NDBC,ioos:station:wmo:42056:1,2012-03-13T04:00:00Z,19.8020,-84.8570,1019.1,1111122 
NDBC,ioos:station:wmo:42056:1,2012-03-13T05:00:00Z,19.8020,-84.8570,1019.0,1111122 
NDBC,ioos:station:wmo:42056:1,2012-03-13T06:00:00Z,19.8020,-84.8570,1018.6,1111122 
NDBC,ioos:station:wmo:42056:1,2012-03-13T07:00:00Z,19.8020,-84.8570,1018.8,1111122 
NDBC,ioos:station:wmo:42056:1,2012-03-13T08:00:00Z,19.8020,-84.8570,1018.6,1111122 
NDBC,ioos:station:wmo:42056:1,2012-03-13T09:00:00Z,19.8020,-84.8570,1018.0,1111122 
NDBC,ioos:station:wmo:42056:1,2012-03-13T10:00:00Z,19.8020,-84.8570,1017.6,1111122 
NDBC,ioos:station:wmo:42056:1,2012-03-13T11:00:00Z,19.8020,-84.8570,1017.4,1111122 
NDBC,ioos:station:wmo:42056:1,2012-03-13T12:00:00Z,19.8020,-84.8570,1017.9,1111122 
NDBC,ioos:station:wmo:42056:1,2012-03-13T13:00:00Z,19.8020,-84.8570,1018.1,1111122 
NDBC,ioos:station:wmo:42056:1,2012-03-13T14:00:00Z,19.8020,-84.8570,1019.0,1111122 
NDBC,ioos:station:wmo:42056:1,2012-03-13T15:00:00Z,19.8020,-84.8570,1020.0,1111122 
NDBC,ioos:station:wmo:42056:1,2012-03-13T16:00:00Z,19.8020,-84.8570,1020.7,1111122 
NDBC,ioos:station:wmo:42056:1,2012-03-13T17:00:00Z,19.8020,-84.8570,1020.8,1111122 
NDBC,ioos:station:wmo:42056:1,2012-03-13T18:00:00Z,19.8020,-84.8570,1020.5,1111122 
NDBC,ioos:station:wmo:42056:1,2012-03-13T19:00:00Z,19.8020,-84.8570,1019.6,1111122 
NDBC,ioos:station:wmo:42056:1,2012-03-13T20:00:00Z,19.8020,-84.8570,1018.8,1111122 
NDBC,ioos:station:wmo:42056:1,2012-03-13T21:00:00Z,19.8020,-84.8570,1018.0,1111122 
NDBC,ioos:station:wmo:42056:1,2012-03-13T22:00:00Z,19.8020,-84.8570,1017.5,1111122 
NDBC,ioos:station:wmo:42056:1,2012-03-13T23:00:00Z,19.8020,-84.8570,1017.4,1111122 
NDBC,ioos:station:wmo:42056:1,2012-03-14T00:00:00Z,19.8020,-84.8570,1017.4,1111122 
NDBC,ioos:station:wmo:42056:1,2012-03-14T01:00:00Z,19.8020,-84.8570,1017.5,1111122 
NDBC,ioos:station:wmo:42056:1,2012-03-14T02:00:00Z,19.8020,-84.8570,1018.1,1111122 
NDBC,ioos:station:wmo:42056:1,2012-03-14T03:00:00Z,19.8020,-84.8570,1018.4,1111122 
NDBC,ioos:station:wmo:42056:1,2012-03-14T04:00:00Z,19.8020,-84.8570,1018.6,1111122 
NDBC,ioos:station:wmo:42056:1,2012-03-14T05:00:00Z,19.8020,-84.8570,1018.6,1111122 
NDBC,ioos:station:wmo:42056:1,2012-03-14T06:00:00Z,19.8020,-84.8570,1018.4,1111122 
NDBC,ioos:station:wmo:42056:1,2012-03-14T07:00:00Z,19.8020,-84.8570,1018.1,1111122 
NDBC,ioos:station:wmo:42056:1,2012-03-14T08:00:00Z,19.8020,-84.8570,1017.7,1111122 
NDBC,ioos:station:wmo:42056:1,2012-03-14T10:00:00Z,19.8020,-84.8570,1017.1,1111122 
NDBC,ioos:station:wmo:42056:1,2012-03-14T11:00:00Z,19.8020,-84.8570,1017.5,1111122 
NDBC,ioos:station:wmo:42056:1,2012-03-14T12:00:00Z,19.8020,-84.8570,1018.1,1111122 
NDBC,ioos:station:wmo:42056:1,2012-03-14T13:00:00Z,19.8020,-84.8570,1018.5,1111122 
NDBC,ioos:station:wmo:42056:1,2012-03-14T14:00:00Z,19.8020,-84.8570,1019.1,1111122 
NDBC,ioos:station:wmo:42056:1,2012-03-14T15:00:00Z,19.8020,-84.8570,1020.2,1111122 
NDBC,ioos:station:wmo:42056:1,2012-03-14T16:00:00Z,19.8020,-84.8570,1020.5,1111122 
NDBC,ioos:station:wmo:42056:1,2012-03-14T17:00:00Z,19.8020,-84.8570,1020.7,1111122 
NDBC,ioos:station:wmo:42056:1,2012-03-14T18:00:00Z,19.8020,-84.8570,1020.1,1111122 
NDBC,ioos:station:wmo:42056:1,2012-03-14T19:00:00Z,19.8020,-84.8570,1019.6,1111122 
NDBC,ioos:station:wmo:42056:1,2012-03-14T20:00:00Z,19.8020,-84.8570,1018.8,1111122 
NDBC,ioos:station:wmo:42056:1,2012-03-14T21:00:00Z,19.8020,-84.8570,1018.1,1111122 
NDBC,ioos:station:wmo:42056:1,2012-03-14T22:00:00Z,19.8020,-84.8570,1017.9,1111122 
NDBC,ioos:station:wmo:42056:1,2012-03-14T23:00:00Z,19.8020,-84.8570,1017.7,1111122 
NDBC,ioos:station:wmo:42056:1,2012-03-15T00:00:00Z,19.8020,-84.8570,1018.0,1111122 
NDBC,ioos:station:wmo:42056:1,2012-03-15T01:00:00Z,19.8020,-84.8570,1018.3,1111122 
NDBC,ioos:station:wmo:42056:1,2012-03-15T02:00:00Z,19.8020,-84.8570,1018.8,1111122 
NDBC,ioos:station:wmo:42056:1,2012-03-15T03:00:00Z,19.8020,-84.8570,1019.3,1111122 
NDBC,ioos:station:wmo:42056:1,2012-03-15T04:00:00Z,19.8020,-84.8570,1019.7,1111122 
NDBC,ioos:station:wmo:42056:1,2012-03-15T05:00:00Z,19.8020,-84.8570,1019.3,1111122 
NDBC,ioos:station:wmo:42056:1,2012-03-15T06:00:00Z,19.8020,-84.8570,1018.7,1111122 
NDBC,ioos:station:wmo:42056:1,2012-03-15T07:00:00Z,19.8020,-84.8570,1019.2,1111122 
NDBC,ioos:station:wmo:42056:1,2012-03-15T08:00:00Z,19.8020,-84.8570,1018.8,1111122 
NDBC,ioos:station:wmo:42056:1,2012-03-15T09:00:00Z,19.8020,-84.8570,1018.3,1111122 
NDBC,ioos:station:wmo:42056:1,2012-03-15T10:00:00Z,19.8020,-84.8570,1018.0,1111122 
NDBC,ioos:station:wmo:42056:1,2012-03-15T11:00:00Z,19.8020,-84.8570,1018.4,1111122 
NDBC,ioos:station:wmo:42056:1,2012-03-15T13:00:00Z,19.8020,-84.8570,1019.8,1111122 
NDBC,ioos:station:wmo:42056:1,2012-03-15T14:00:00Z,19.8020,-84.8570,1020.7,1111122 
NDBC,ioos:station:wmo:42056:1,2012-03-15T15:00:00Z,19.8020,-84.8570,1021.2,1111122 
NDBC,ioos:station:wmo:42056:1,2012-03-15T16:00:00Z,19.8020,-84.8570,1021.9,1111122 
NDBC,ioos:station:wmo:42056:1,2012-03-15T17:00:00Z,19.8020,-84.8570,1021.9,1111122 
NDBC,ioos:station:wmo:42056:1,2012-03-15T18:00:00Z,19.8020,-84.8570,1021.7,1111122 
NDBC,ioos:station:wmo:42056:1,2012-03-15T19:00:00Z,19.8020,-84.8570,1020.9,1111122 
NDBC,ioos:station:wmo:42056:1,2012-03-15T20:00:00Z,19.8020,-84.8570,1020.1,1111122 
NDBC,ioos:station:wmo:42056:1,2012-03-15T21:00:00Z,19.8020,-84.8570,1019.4,1111122 
NDBC,ioos:station:wmo:42056:1,2012-03-15T22:00:00Z,19.8020,-84.8570,1018.7,1111122 
NDBC,ioos:station:wmo:42056:1,2012-03-15T23:00:00Z,19.8020,-84.8570,1018.3,1111122 
NDBC,ioos:station:wmo:42056:1,2012-03-16T00:00:00Z,19.8020,-84.8570,1018.6,1111122 
NDBC,ioos:station:wmo:42056:1,2012-03-16T01:00:00Z,19.8020,-84.8570,1018.7,1111122 
NDBC,ioos:station:wmo:42056:1,2012-03-16T02:00:00Z,19.8020,-84.8570,1019.3,1111122 
NDBC,ioos:station:wmo:42056:1,2012-03-16T03:00:00Z,19.8020,-84.8570,1019.9,1111122 